Weather History for PADQ - November, 2013

Change the Weather History Date:

Sunday, November 3, 2013

  Actual Average Record
Temperature  
Mean Temperature 40 °F 36 °F  
Max Temperature 45 °F 42 °F 52 °F (1984)
Min Temperature 34 °F 31 °F 10 °F (1985)
Degree Days  
Heating Degree Days 25 29  
Month to date heating degree days 81 87  
Since 1 July heating degree days 1629 1945  
Cooling Degree Days 0    
Month to date cooling degree days 0  
Year to date cooling degree days 6  
Moisture  
Dew Point 42 °F    
Average Humidity 0    
Maximum Humidity 0    
Minimum Humidity 0    
Precipitation  
Precipitation 0.49 in 0.22 in 2.69 in (2002)
Month to date precipitation 0.55 0.69  
Year to date precipitation 57.96 63.09  
Snow  
Snow 0.00 in 0.10 in 1.30 in (2011)
Month to date snowfall 0.0 0.3  
Since 1 July snowfall 0.0 1.4  
Since 1 September snowfall 0.0 1.4  
Snow Depth 0.00 in    
Sea Level Pressure  
Sea Level Pressure 29.58 in    
Wind  
Wind Speed 7 mph (East)    
Max Wind Speed 15 mph    
Max Gust Speed 17 mph    
Visibility 8 miles    
Events Rain    
T = Trace of Precipitation, MM = Missing Value Source: NWS Daily Summary

Daily Weather History Graph

Daily Weather History Graph

Search for Another Location

Airport or City:

Trip Planner

Search our weather history database for the weather conditions in past years. The results will help you decide how hot, cold, wet, or windy it might be!

Date:

Astronomy

Nov. 03, 2013 Rise Set
Actual Time 8:28 AM AKST 5:17 PM AKST
Civil Twilight 7:46 AM AKST 5:59 PM AKST
Nautical Twilight 6:59 AM AKST 6:46 PM AKST
Astronomical Twilight 6:14 AM AKST 7:31 PM AKST
Moon 8:50 AM AKST 5:31 PM AKST
Length of Visible Light 10h 13m
Length of Day
8h 48m
New Moon, 0% of the Moon is Illuminated
Nov 3
New Moon
Nov 9
First Quarter
Nov 17
Full
Nov 25
Last Quarter
Dec 2
New

Hourly Weather History & Observations

Time (AKST) Temp. Windchill Dew Point Humidity Pressure Visibility Wind Dir Wind Speed Gust Speed Precip Events Conditions
12:53 AM 43.0 °F 40.3 °F 39.9 °F 89% 29.68 in 10.0 mi SE 4.6 mph - N/A   Overcast
1:53 AM 44.1 °F 41.5 °F 41.0 °F 89% 29.69 in 10.0 mi ENE 4.6 mph - N/A   Overcast
1:53 AM 41.0 °F - 39.9 °F 96% 29.70 in 10.0 mi Calm Calm - N/A   Overcast
3:53 AM 37.9 °F 35.5 °F 37.0 °F 97% 29.70 in 10.0 mi West 3.5 mph - N/A   Clear
4:53 AM 35.1 °F - 34.0 °F 96% 29.70 in 10.0 mi Calm Calm - N/A   Mostly Cloudy
5:53 AM 36.0 °F - 36.0 °F 100% 29.69 in 10.0 mi Calm Calm - N/A   Overcast
6:53 AM 41.0 °F - 39.9 °F 96% 29.68 in 10.0 mi Calm Calm - N/A   Overcast
7:53 AM 42.1 °F 40.2 °F 39.9 °F 92% 29.68 in 10.0 mi SSE 3.5 mph - N/A   Mostly Cloudy
8:53 AM 44.1 °F 39.0 °F 42.1 °F 93% 29.68 in 10.0 mi SE 9.2 mph - N/A   Mostly Cloudy
9:00 AM 44.6 °F 39.7 °F 42.8 °F 93% 29.68 in 10.0 mi SE 9.2 mph - N/A   Overcast
9:53 AM 44.1 °F 39.5 °F 41.0 °F 89% 29.67 in 10.0 mi SE 8.1 mph - N/A   Overcast
10:53 AM 45.0 °F 40.6 °F 42.1 °F 90% 29.66 in 10.0 mi ESE 8.1 mph - N/A   Overcast
11:00 AM 44.6 °F 40.7 °F 42.8 °F 93% 29.66 in 10.0 mi ESE 6.9 mph - N/A   Mostly Cloudy
11:08 AM 44.6 °F 40.2 °F 42.8 °F 93% 29.66 in 9.0 mi SE 8.1 mph - N/A   Overcast
11:53 AM 45.0 °F 39.3 °F 43.0 °F 93% 29.65 in 10.0 mi ESE 11.5 mph - N/A   Overcast
12:53 PM 45.0 °F 39.7 °F 44.1 °F 97% 29.63 in 3.0 mi ESE 10.4 mph - 0.01 in   Overcast
1:53 PM 45.0 °F 39.7 °F 43.0 °F 93% 29.60 in 10.0 mi ESE 10.4 mph - N/A   Overcast
2:53 PM 45.0 °F 39.7 °F 43.0 °F 93% 29.58 in 10.0 mi East 10.4 mph - N/A   Overcast
3:53 PM 44.1 °F 40.1 °F 43.0 °F 96% 29.55 in 7.0 mi ESE 6.9 mph - 0.01 in   Overcast
4:53 PM 45.0 °F 40.1 °F 43.0 °F 93% 29.52 in 9.0 mi East 9.2 mph - 0.01 in   Overcast
5:20 PM 44.6 °F 41.4 °F 42.8 °F 93% 29.50 in 3.0 mi East 5.8 mph - 0.01 in Rain Light Rain
5:22 PM 44.6 °F 41.4 °F 42.8 °F 93% 29.50 in 2.0 mi East 5.8 mph - 0.01 in Rain Light Rain
5:50 PM 44.6 °F 38.4 °F 42.8 °F 93% 29.49 in 3.0 mi East 12.7 mph - 0.03 in Rain Light Rain
5:53 PM 44.1 °F 38.6 °F 43.0 °F 96% 29.49 in 6.0 mi East 10.4 mph - 0.03 in Rain Light Rain
6:53 PM 44.1 °F 38.1 °F 42.1 °F 93% 29.48 in 6.0 mi ENE 11.5 mph - 0.09 in Rain Light Rain
7:53 PM 44.1 °F 38.6 °F 42.1 °F 93% 29.46 in 6.0 mi NE 10.4 mph - 0.08 in Rain Light Rain
8:53 PM 44.1 °F 40.1 °F 42.1 °F 93% 29.44 in 5.0 mi ENE 6.9 mph - 0.05 in Rain Rain
9:04 PM 44.6 °F 38.8 °F 42.8 °F 93% 29.44 in 5.0 mi NNE 11.5 mph - 0.03 in Rain Rain
9:53 PM 45.0 °F 40.1 °F 42.1 °F 90% 29.43 in 8.0 mi NE 9.2 mph - 0.08 in Rain Light Rain
10:15 PM 44.6 °F 38.8 °F 42.8 °F 93% 29.42 in 7.0 mi NNE 11.5 mph - 0.02 in Rain Light Rain
10:41 PM 44.6 °F 39.2 °F 42.8 °F 93% 29.42 in 7.0 mi NE 10.4 mph - 0.05 in Rain Light Rain
10:53 PM 45.0 °F 39.7 °F 42.1 °F 90% 29.41 in 6.0 mi NE 10.4 mph - 0.06 in Rain Rain